#timestamp,LO_Frequency,Hit,StdDev 
1619924415.8,286046990.6,N
1619924435.6,286046996.0,N
1619924455.4,286046996.9,N
1619924475.3,286046993.7,N
1619924495.1,286046990.1,N
1619924515.9,286046995.1,N
1619924535.7,286046995.5,N
1619924555.5,286046998.9,N
1619924575.4,286046999.5,N
1619924595.2,286046999.1,N
1619924615.1,286046994.0,N
1619924616.0,286046994.0,N
1619924635.8,286047002.4,N
1619924655.6,286047013.7,Y
1619924675.5,286047020.5,P
1619924695.3,286047016.3,N
1619924715.1,286047014.9,N
1619924735.9,286047022.3,N
1619924755.7,286047028.5,N
1619924775.6,286047036.9,Y
1619924795.4,286047010.7,P
1619924815.2,286047003.5,N
1619924835.1,286046998.6,N
1619924836.0,286046998.6,N
1619924855.8,286046998.5,N
1619924875.7,286046996.5,N
1619924895.5,286046994.9,N
1619924915.3,286046992.9,N
1619924935.2,286046990.3,N
1619924955.0,286046988.8,N
1619924955.9,286046988.8,N
1619924975.8,286046991.5,N
1619924995.6,286046987.4,N
1619925015.4,286046994.3,N
1619925035.3,286046997.5,N
1619925055.1,286046991.8,N
1619925075.8,286046991.1,N
1619925095.7,286046997.9,N
1619925115.5,286047003.9,N
1619925135.4,286046999.7,N
1619925155.2,286047003.1,N
1619925175.0,286047000.5,N
1619925175.9,286047000.5,N
1619925195.8,286046996.5,N
1619925215.6,286046994.5,N
1619925235.5,286046998.1,N
1619925255.3,286047002.5,N
1619925275.1,286047003.5,N
1619925295.9,286047002.0,N
1619925315.7,286047001.0,N
1619925335.6,286047000.4,N
1619925355.4,286046999.6,N
1619925375.2,286047000.7,N
1619925395.1,286047000.1,N
1619925396.0,286047000.1,N
1619925415.8,286047003.6,N
1619925435.7,286047003.4,N
1619925455.5,286047002.7,N
1619925475.3,286047000.2,N
1619925495.2,286046997.1,N
1619925515.0,286046998.1,N
1619925515.9,286046998.1,N
1619925535.7,286046993.7,N
1619925555.6,286046997.2,N
1619925575.4,286047000.7,N
1619925595.3,286047004.4,N
1619925615.1,286047009.4,N
1619925616.0,286047009.4,N
1619925635.8,286047012.7,Y
1619925655.7,286047011.6,P
1619925675.5,286047009.7,N
1619925695.4,286047008.2,N
1619925715.2,286047010.0,N
1619925735.0,286047007.3,N
1619925735.9,286047007.3,N
1619925755.8,286047001.3,N
1619925775.6,286047002.4,N
1619925795.4,286047004.4,N
1619925815.3,286047003.8,N
1619925835.1,286047009.2,N
1619925855.9,286047008.7,N
1619925875.7,286047008.0,N
1619925895.5,286047013.3,Y
1619925915.4,286047007.7,P
1619925935.2,286047006.5,P
1619925955.1,286047002.0,P
1619925956.0,286047002.0,N
1619925975.8,286047000.0,N
1619925995.7,286046999.6,N
1619926015.5,286047002.7,N
1619926035.4,286047007.0,N
1619926055.2,286047011.1,Y
1619926075.1,286047008.9,P
1619926076.0,286047008.9,P
1619926095.8,286047000.5,N
1619926115.6,286046997.2,N
1619926135.5,286046996.6,N
1619926155.3,286047001.1,N
1619926175.2,286046998.4,N
1619926195.0,286047004.4,N
1619926195.9,286047004.4,N
1619926215.8,286047007.0,N
1619926235.6,286047005.5,N
1619926255.5,286047004.3,N
1619926275.3,286047002.4,N
1619926295.1,286047003.8,N
1619926315.9,286047003.9,N
1619926335.7,286047002.3,N
1619926355.5,286047004.0,N
1619926375.4,286047006.6,N
1619926395.3,286047010.8,Y
1619926415.1,286047007.0,P
1619926416.0,286047007.0,P
1619926435.9,286047002.6,N
1619926455.7,286047002.5,N
1619926475.5,286047005.1,N
1619926495.4,286047004.9,N
1619926515.2,286047005.5,Y
1619926535.0,286046997.7,P
1619926535.9,286046997.7,N
1619926555.8,286046997.4,N
1619926575.6,286046995.6,N
1619926595.5,286046995.5,N
1619926615.3,286046993.8,N
1619926635.1,286046991.4,N
1619926655.9,286046991.1,N
1619926675.7,286046990.5,N
1619926695.6,286046994.5,N
1619926715.4,286046996.9,N
1619926735.3,286046999.5,N
1619926755.1,286047000.0,N
1619926756.0,286047000.0,N
1619926775.8,286047000.9,N
1619926795.7,286046999.9,N
1619926815.5,286047000.3,N
1619926835.4,286046997.0,N
1619926855.2,286046992.0,N
1619926875.0,286046993.1,N
1619926876.0,286046993.1,N
1619926895.8,286046990.4,N
1619926915.6,286046987.1,Y
1619926935.5,286046987.6,P
1619926955.3,286046986.5,P
1619926975.2,286046982.6,P
1619926995.9,286046986.4,N
1619927015.7,286046986.3,Y
1619927035.6,286047001.0,P
1619927055.4,286047005.6,N
1619927075.2,286047003.8,N
1619927095.1,286047000.0,N
1619927096.0,286047000.0,N
1619927115.8,286046999.8,N
1619927135.7,286047000.7,N
1619927155.5,286047000.8,N
1619927175.3,286046999.2,N
1619927195.2,286046999.9,N
1619927215.0,286047002.2,N
1619927215.9,286047002.2,N
1619927235.7,286046998.7,N
1619927255.6,286046998.8,N
1619927275.4,286047000.5,N
1619927295.3,286047004.2,N
1619927315.1,286047005.6,N
1619927335.8,286047003.8,N
1619927355.7,286047007.2,N
1619927375.5,286047005.1,N
1619927395.4,286047001.2,N
1619927415.2,286047002.2,N
1619927435.0,286047002.7,N
1619927435.9,286047002.7,N
1619927455.8,286047000.6,N
1619927475.6,286046997.1,N
1619927495.4,286046993.9,N
1619927515.3,286046997.8,N
1619927535.1,286046993.7,N
1619927555.9,286046994.3,N
1619927575.7,286046996.8,N
1619927595.5,286047001.6,N
1619927615.4,286047004.0,N
1619927635.2,286047002.0,N
1619927655.0,286046998.6,N
1619927656.0,286046998.6,N
1619927675.8,286047001.0,N
1619927695.6,286047004.4,N
1619927715.5,286047001.8,N
1619927735.3,286046998.6,N
1619927755.1,286046996.6,N
1619927775.9,286046998.9,N
1619927795.7,286046998.2,N
1619927815.6,286047004.4,N
1619927835.4,286047000.5,N
1619927855.2,286046996.9,N
1619927875.1,286046994.2,N
1619927876.0,286046994.2,N
1619927895.8,286046993.9,N
1619927915.6,286046995.7,N
1619927935.5,286046999.0,N
1619927955.3,286047001.4,N
1619927975.2,286047000.2,N
1619927995.9,286047004.1,N
